AQI (31)

Current Conditions for Foresthill, CA. Dawn, Clear skies, Dry   
Visibility: 10 miles
Space WX Alerts: WATCH:  Geomagnetic Storm Category G1 Predicted ( Latest Alert ) - Issue Time: 2018 Jul 21 1831 UTC

  Summary / Temperature 

Current Temperature
69.9°F
21.1°C
(24/hr Ago)
70.6°F
(Apparent temp)
72.9°F
Comfortable
Wind Chill Graphs
69.9°F 

77.1°F/ 25.1°C
Little or no discomfort

 Temp Rate:

 24/hr Difference:

 Avg Running Temp:

 Todays High:

 Todays Low:

 Y-days High:

 Y-days Low:

 Todays HeatIdx:

 Y-days HeatIdx:

 Evapotranspiration:

-0.2°F/hr 

-0.7°F

70.0°F

72.5°F 12:00am

69.7°F 6:03am

86.3°F 2:47pm

70.5°F 6:17am

74.7°F 12:27am

86.7°F 2:51pm

0.001 in

115' Above Ground

 Temperature:

 6'AGL VRS 115'AGL:

 Avg Running Temp:

 Humidity:

 Todays High:

 Todays Low:

 Y-days High:

 Y-days Low:

77.0°F 

+7.1°F

76.2°F

53% 

77.0°F 12:12am

74.0°F 2:25am

86.0°F 2:35pm

72.0°F 4:03am

Temp & Humidity Graphs

  Wind 

Wind Speed

 Calm

Gusting to

 None

Calm

273°  

Calm

 Avg speed:

 Wind Run:

 Peak Gust:

Calm 

2.0 miles

  5.0 mph 2:33am

  Almanac  

Moon age: 10 days,22 hours,8 minutes,84%

Waxing Gibbous
84%
Illuminated
10 days in cycle

 Moonrise:

 Moonset:

 Sunrise:

 Sunset:

 Solar Noon:

5:16pm

2:41am

5:57am

8:23pm

1:10pm

1min 34s less daylight tomorrow 

  Solar Radiation 

(Current Solar)
  32 W/m2 (123%)
(Todays High)
 32 W/m2@6:31am
Feels like: 77.2°F in the sun

Rain

 Rain Today:

 Rain Rate (/hr):

 Rain last hour:

 Rain Yesterday:

 This Month:

 Season Total:

58 Days Since Last Rain Day

0.00 in

0.000 in

0.00 in

0.00 in

0.00 in

0.00 in

Updated Time

Updated: 7/23/18  6:32am

(Updated  sec ago)

Humidity & Barometer

 Humidity:

 Wetbulb:

 Dew Point:

 Barometer:

69% 

63.3°F 

59.3°F 

29.999 inHg 

 Baro Trend:  Steady 
Northern Calif
Preparedness
Fire 
Level 

    UV Index  

(Current UV)
0.0  None
(Todays High) @ 12:00am
0.0   None

National Weather Service Forecast

Today

Today: Sunny
Sunny
Tonight

Tonight: Mostly Clear
Mostly Clear
Tuesday

Tuesday: Sunny
Sunny
Tuesday
Night
Tuesday Night: Mostly Clear
Mostly Clear
Wednesday

Wednesday: Sunny
Sunny
Wednesday
Night
Wednesday Night: Mostly Clear
Mostly Clear
Hi 91 °F Lo 72 °F Hi 94 °F Lo 71 °F Hi 95 °F Lo 71 °F

Foresthill Probe 2 Stats  
Foresthill Probe 2: is located on Thomas Street
at 3000 feet. The main Foresthill Weather site
is located on Melody ln at the 2860 foot elevation

Calm
68.7°F
20.4°C
Temp Rate:
-0.4°F
Calm
Gusting to
None
(Humidity)
73%
Calm
182°  
Updated: 23/07/18 - 06:27:08
 Todays High: 72.1°F 00:00
 Todays Low: 68.6°F 06:22
 Rain Today: 0.00 in
 Season Total: 0.00 in

Foresthill Wx: Monthly,Yearly, Highs and Lows 

Foresthill  
This Weather Data is coming from the main Foresthill
Weather site located on Melody ln at the 2860 foot
elevation
Not Foresthill Probe 2
Weather Data
Month
  High
Month
  Low
Year
High
Year
Low
Temp 92.4°F
7/19/18
60.2°F
7/5/18
92.4°F
7/19/18
21.9°F
2/23/18
Humidity 73%
7/4/18
12%
7/8/18
100%
1/8/18
12%
7/8/18
Heat Index 91.6°F
7/18/18
63.2°F
7/5/18
91.6°F
7/18/18
27.1°F
2/20/18
Wind Chill 92.4°F
7/19/18
58.8°F
7/5/18
92.4°F
7/19/18
9.2°F
2/23/18
Wind Gust 20 mph
7/3/18
0 mph
7/1/18
43 mph
3/1/18
0 mph
1/1/18
Barometer 30.18 in
7/5/18
29.73 in
7/3/18
30.55 in
1/27/18
29.60 in
6/16/18
ET 0.25 in
7/8/18
0.00 in
7/1/18
0.25 in
6/24/18
0.00 in
1/1/18
Dew Point 65.3°F
7/15/18
28.9°F
7/8/18
65.3°F
7/15/18
7.6°F
2/11/18
Pacific Satellite US Radar Satellite Imagery Sacramento,CA.  (click to enlarge)
NWS Weather Forecast - Summary
Updated: Monday, July 23, 2018 - 6:10am PDT
Isolated Afternoon Mountain Thunderstorms Possible into Tuesday
Current Interstate Highway Conditions for I-80 & US-50

[I 80: IN THE SAN FRANCISCO BAY AREA - SOLANO CO]
no traffic restrictions are reported for this area.

[I 80: IN THE NORTHERN CALIFORNIA AREA & SIERRA NEVADA]
no traffic restrictions are reported for this area.

[US 50: IN THE SACRAMENTO VALLEY & THE LAKE TAHOE BASIN]
eastbound traffic is reduced to 3 lanes at watt ave /in sacramento/ (sacramento co) - due to an overturned big rig
NWS Weather Forecast: Today and Tonight (Updated: Mon, 23-Jul-2018 1:55am PDT)
Today

Today: Sunny
Sunny

Hi 91 °F
NWS forecast: Sunny, with a high near 91. North northwest wind 1 to 7 mph.
Tonight

Tonight: Mostly Clear
Mostly Clear

Lo 72 °F
NWS forecast: Mostly clear, with a low around 72. Northeast wind 3 to 7 mph.
YR.NO 10 Day Weather forecast
Last update: 07/23/2018 @ 00:37
Next update: 07/23/2018 @ 13:00
Provided by: 22
      Temperature Precipitation Pressure Wind  
Today
07/23/2018
04:00 06:00 64°F   30.01 inHg Light breeze from east-northeast 5 mph
  06:00 12:00 64°F   30.01 inHg Light breeze from east-northeast 5 mph
  12:00 18:00 90°F   30.00 inHg Light breeze from west 7 mph
  18:00 00:00 88°F   29.94 inHg Light breeze from west-southwest 7 mph
    (Click to enlarge)
meteogram

    Forecast for next 9 days

      Temperature Precip Pressure Wind  
Tuesday
07/24/2018
00:00 06:00 70°F   29.97 inHg Light air from east-northeast 2 mph
  06:00 12:00 64°F   29.96 inHg Light breeze from east-northeast 4 mph
  12:00 18:00 91°F   29.99 inHg Light breeze from west-southwest 7 mph
  18:00 00:00 90°F   29.94 inHg Light breeze from southwest 5 mph
      Temperature Precip Pressure Wind  
Wednesday
07/25/2018
00:00 06:00 68°F   30.01 inHg Light breeze from east-northeast 5 mph
  06:00 12:00 63°F   30.01 inHg Light breeze from east-northeast 5 mph
  12:00 18:00 93°F   30.01 inHg Light breeze from west-southwest 7 mph
  17:00 23:00 95°F   29.95 inHg Light breeze from west-southwest 7 mph
  23:00 05:00 72°F   29.98 inHg Light breeze from east-northeast 4 mph
      Temperature Precip Pressure Wind  
Thursday
07/26/2018
05:00 11:00 63°F   29.93 inHg Light breeze from east-northeast 5 mph
  11:00 17:00 93°F   29.93 inHg Light breeze from west-southwest 6 mph
  17:00 23:00 95°F   29.87 inHg Light breeze from west-southwest 7 mph
  23:00 05:00 72°F   29.89 inHg Light breeze from east 4 mph
      Temperature Precip Pressure Wind  
Friday
07/27/2018
05:00 11:00 63°F   29.85 inHg Light breeze from east-northeast 5 mph
  11:00 17:00 91°F   29.87 inHg Light breeze from west-southwest 6 mph
  17:00 23:00 93°F   29.83 inHg Light breeze from southwest 7 mph
  23:00 05:00 68°F   29.86 inHg Light breeze from east 4 mph
      Temperature Precip Pressure Wind  
Saturday
07/28/2018
05:00 11:00 61°F   29.86 inHg Light breeze from east-northeast 4 mph
  11:00 17:00 90°F   29.89 inHg Light breeze from west-southwest 6 mph
  17:00 23:00 91°F   29.84 inHg Light breeze from southwest 6 mph
  23:00 05:00 68°F   29.90 inHg Light air from east 2 mph
      Temperature Precip Pressure Wind  
Sunday
07/29/2018
05:00 11:00 59°F   29.88 inHg Light breeze from east-northeast 6 mph
  11:00 17:00 91°F   29.91 inHg Light breeze from west-southwest 4 mph
  17:00 23:00 86°F   29.89 inHg Light breeze from southwest 5 mph
  23:00 05:00 70°F   29.93 inHg Light air from east 2 mph
      Temperature Precip Pressure Wind  
Monday
07/30/2018
05:00 11:00 63°F   29.92 inHg Light breeze from east-northeast 4 mph
  11:00 17:00 93°F   29.92 inHg Light breeze from southwest 5 mph
  17:00 23:00 91°F   29.89 inHg Light breeze from west-southwest 4 mph
  23:00 05:00 73°F   29.92 inHg Light air from east-northeast 3 mph
      Temperature Precip Pressure Wind  
Tuesday
07/31/2018
05:00 11:00 63°F   29.90 inHg Light breeze from east-northeast 5 mph
  11:00 17:00 93°F   29.92 inHg Light breeze from west-southwest 6 mph
  17:00 23:00 95°F   29.85 inHg Light breeze from west-southwest 7 mph
  23:00 05:00 73°F   29.88 inHg Light air from east-northeast 3 mph
      Temperature Precip Pressure Wind  
Wednesday
08/01/2018
05:00 11:00 66°F   29.86 inHg Light breeze from east-northeast 7 mph
  11:00 17:00 93°F   29.88 inHg Light breeze from southwest 6 mph

NOAA Local Storm Report
7 MILES SOUTH-SOUTHWEST OF HUGO   ( More )
DATE
07/21/2018
TIME
6:48 PM
COUNTY
LINCOLN
STATE
CO
GEOGRAPHIC
39.04N 103.52W
SOURCE
MESONET
THUNDERSTORM WIND GUST MEASURED AT 62 MPH

NOAA Local Storm Report
5 MILES NORTH-NORTHWEST OF PAWNEE BUTTES   ( More )
DATE
07/21/2018
TIME
6:00 PM
COUNTY
WELD
STATE
CO
GEOGRAPHIC
40.89N 104.01W
SOURCE
CO-OP OBSERVER
FLASH FLOOD
2 feet of water at least 100 feet wide was running over weld county road 111 just north of county road 124.

NOAA Local Storm Report
4 MILES NORTH-NORTHEAST OF KEOTA   ( More )
DATE
07/21/2018
TIME
5:40 PM
COUNTY
WELD
STATE
CO
GEOGRAPHIC
40.76N 104.05W
SOURCE
TRAINED SPOTTER
HAIL MEASURED AT 1.50 INCH
hailed for about 20 minutes.

NOAA Local Storm Report
5 MILES NORTH OF PAWNEE BUTTES   ( More )
DATE
07/21/2018
TIME
5:40 PM
COUNTY
WELD
STATE
CO
GEOGRAPHIC
40.89N 104.00W
SOURCE
MESONET
THUNDERSTORM WIND GUST MEASURED AT 64 MPH

NOAA Local Storm Report
3 MILES NORTH-NORTHWEST OF PAWNEE BUTTES   ( More )
DATE
07/21/2018
TIME
5:39 PM
COUNTY
WELD
STATE
CO
GEOGRAPHIC
40.86N 104.01W
SOURCE
MESONET
THUNDERSTORM WIND GUST MEASURED AT 65 MPH
How Close Are We To this Month's Temperature Record ?
Updated Monday, Jul 23, 2018- 6:25:01 AM

Current Temperature: 69.9°F

July's High: Temperature Record 98.1°F - Set on Wed, Jul 29, 2015 - 2:57:00 PM
We are currently 28.2°F Less than this Month's record High

July's Low: Temperature Record 51.4°F - Set on Sun, Jul 10, 2016 - 7:04:00 AM
We are currently 18.5°F More than this Month's record Low

Weather History For Monday, July 23, 2018


On this Day - In Weather History ...
Data courtesy of weatherforyou.com
powered by Cumulus v1.9.3 (1059)
Ambient Weather VWS v14.00
Top Contact Website Map Copyright © 2007 - 2018 Foresthillweather.com Never base important decisions on this or any weather information obtained from the Internet